Hourly Data Report for June 02, 2021

FISHER BRANCH (AUT)
MANITOBA
Current Station Operator: ECCC - MSC

51°05'00.100" N
97°33'16.200" W
253.00 m
50309J6
71442
WSZ

Download Data

Hourly Data (June 2021)
Hourly Data Report for June 2, 2021
TIME
LST
Temp Definition
°C
Dew Point Definition
°C
Rel Hum Definition
%
Precip. Amount Definition
mm

Wind Dir Definition
10's deg

Wind Spd Definition
km/h
Visibility Definition
km
Stn Press Definition
kPa
Hmdx Definition


Wind Chill Definition


Weather Definition


00:00 10.9 7.9 81 0.0 30 11   98.25     LegendNANA
01:00 9.4 7.7 89 0.0 31 8   98.20     LegendNANA
02:00 8.9 7.5 92 0.0 29 8   98.14     LegendNANA
03:00 7.9 7.0 94 0.0 29 6   98.12     LegendNANA
04:00 6.5 5.7 95 0.0 26 2   98.13     LegendNANA
05:00 6.8 6.1 96 0.0 28 6   98.13     LegendNANA
06:00 9.8 7.9 88 0.0 29 7   98.11     LegendNANA
07:00 13.1 9.2 77 0.0 17 7   98.08     LegendNANA
08:00 17.2 9.5 61 0.0 21 4   98.06     LegendNANA
09:00 20.2 7.9 45 0.0 24 9   98.03     LegendNANA
10:00 22.5 6.8 36 0.0 23 9   97.94     LegendNANA
11:00 24.5 6.8 32 0.0 26 13   97.91     LegendNANA
12:00 25.9 6.1 28 0.0 25 19   97.87 26   LegendNANA
13:00 26.8 5.2 25 0.0 23 17   97.77 26   LegendNANA
14:00 27.8 4.5 23 0.0 22 22   97.67 27   LegendNANA
15:00 28.7 6.0 24 0.0 23 22   97.61 28   LegendNANA
16:00 29.1 6.9 25 0.0 23 20   97.53 29   LegendNANA
17:00 28.5 6.6 25 0.0 22 18   97.47 28   LegendNANA
18:00 28.6 6.9 26 0.0 25 14   97.41 29   LegendNANA
19:00 28.1 7.5 27 0.0 21 8   97.38 28   LegendNANA
20:00 25.6 8.7 34 0.0 21 4   97.37 26   LegendNANA
21:00 23.3 8.8 40 0.0 35 6   97.36     LegendNANA
22:00 21.6 8.5 43 0.0 2 6   97.32     LegendNANA
23:00 20.0 10.6 55 0.0 36 4   97.43     LegendNANA

Notes on Data Quality.

Legend

  • E = Estimated
  • M = Missing
  • NA = Not Available*
  • [empty] = Indicates an unobserved value
Date modified: